Location: Bad Salzschlirf
(50.3750°N, 9.3000°E)
Time: 07:47:51
(UTC+01:00)

ISS - Pass Details

Date: 11 December 2018
Orbit: 401 x 408 km, 51.6° (Epoch: 12 December)

Event Time Altitude Azimuth Distance (km) Brightness Sun altitude
Rises 18:11:38 0° 285° (WNW) 2,319 1.1 -16.8°
Reaches altitude 10° 18:13:57 10° 270° (W) 1,456 0.2 -17.2°
Maximum altitude 18:16:37 23° 215° (SW) 894 -1.5 -17.6°
Drops below altitude 10° 18:19:17 10° 160° (SSE) 1,448 -1.1 -18.0°
Enters shadow 18:19:44 - 156° (SSE) 1,603 -0.9 -18.1°
